Harlingen, TX

4:19 AM CDT on June 24, 2017 (GMT -0500)
Valley International

Weather History for KHRL - March, 2014

Change the Weather History Date:

Wednesday, March 26, 2014

  Actual Average Record
Temperature  
Mean Temperature 67 °F 71 °F  
Max Temperature 72 °F 82 °F 103 °F (1928)
Min Temperature 62 °F 60 °F 37 °F (1921)
Degree Days  
Heating Degree Days 0 1  
Month to date heating degree days 107 44  
Since 1 July heating degree days 918 612  
Cooling Degree Days 2 7  
Month to date cooling degree days 68 134  
Year to date cooling degree days 179 259  
Growing Degree Days 17 (Base 50)    
Moisture  
Dew Point 60 °F    
Average Humidity 76    
Maximum Humidity 90    
Minimum Humidity 61    
Precipitation  
Precipitation 0.02 in 0.06 in 0.60 in (1951)
Month to date precipitation 1.78 1.05  
Year to date precipitation 2.78 3.52  
Sea Level Pressure  
Sea Level Pressure 30.04 in    
Wind  
Wind Speed 17 mph (ESE)    
Max Wind Speed 32 mph    
Max Gust Speed 38 mph    
Visibility 10 miles    
Events Rain    
T = Trace of Precipitation, MM = Missing Value Source: NWS Daily Summary

Daily Weather History Graph

Daily Weather History Graph

Search for Another Location

Airport or City:

Trip Planner

Search our weather history database for the weather conditions in past years. The results will help you decide how hot, cold, wet, or windy it might be!

Date:

Astronomy

Mar. 26, 2014 Rise Set
Actual Time 7:28 AM CDT 7:44 PM CDT
Civil Twilight 7:04 AM CDT 8:07 PM CDT
Nautical Twilight 6:37 AM CDT 8:34 PM CDT
Astronomical Twilight 6:10 AM CDT 9:02 PM CDT
Moon 4:13 AM CDT (3/26) 3:46 PM CDT (3/26)
Length of Visible Light 13h 02m
Length of Day
12h 16m
Waning Crescent, 21% of the Moon is Illuminated
Mar 26
Waning Crescent
Mar 30
New
Apr 7
First Quarter
Apr 15
Full
Apr 22
Last Quarter

Hourly Weather History & Observations

Time (CDT) Temp. Dew Point Humidity Pressure Visibility Wind Dir Wind Speed Gust Speed Precip Events Conditions
12:52 AM 63.0 °F 53.1 °F 70% 30.18 in 10.0 mi East 11.5 mph - N/A   Overcast
1:52 AM 63.0 °F 54.0 °F 72% 30.17 in 10.0 mi East 12.7 mph - N/A   Overcast
2:52 AM 63.0 °F 55.0 °F 75% 30.15 in 10.0 mi East 8.1 mph - N/A   Overcast
3:52 AM 63.0 °F 55.9 °F 78% 30.12 in 10.0 mi East 11.5 mph - 0.00 in Rain Light Rain
4:52 AM 62.1 °F 57.9 °F 86% 30.11 in 10.0 mi East 6.9 mph - 0.02 in   Overcast
5:52 AM 62.1 °F 59.0 °F 90% 30.11 in 10.0 mi ENE 5.8 mph - 0.00 in   Overcast
6:52 AM 62.1 °F 59.0 °F 90% 30.13 in 10.0 mi ESE 5.8 mph - 0.00 in   Overcast
7:52 AM 62.1 °F 59.0 °F 90% 30.14 in 10.0 mi ENE 8.1 mph - N/A   Overcast
8:52 AM 64.0 °F 60.1 °F 87% 30.12 in 10.0 mi East 11.5 mph - N/A   Overcast
9:52 AM 66.9 °F 61.0 °F 81% 30.12 in 10.0 mi ESE 17.3 mph - N/A   Overcast
10:52 AM 70.0 °F 60.1 °F 71% 30.10 in 10.0 mi SE 24.2 mph 31.1 mph N/A   Overcast
11:52 AM 71.1 °F 59.0 °F 66% 30.10 in 10.0 mi ESE 23.0 mph 29.9 mph N/A   Overcast
12:52 PM 71.1 °F 59.0 °F 66% 30.07 in 10.0 mi SE 24.2 mph 34.5 mph N/A   Overcast
1:52 PM 72.0 °F 57.9 °F 61% 30.04 in 10.0 mi SE 27.6 mph 38.0 mph N/A   Overcast
2:52 PM 72.0 °F 59.0 °F 64% 30.01 in 10.0 mi SE 26.5 mph 33.4 mph N/A   Overcast
3:44 PM 71.6 °F 59.0 °F 64% 29.99 in 10.0 mi SE 25.3 mph 31.1 mph N/A   Overcast
3:52 PM 71.1 °F 59.0 °F 66% 29.98 in 10.0 mi SSE 27.6 mph 35.7 mph N/A   Overcast
4:52 PM 71.1 °F 61.0 °F 70% 29.96 in 10.0 mi SE 23.0 mph 28.8 mph N/A   Overcast
5:52 PM 70.0 °F 62.1 °F 76% 29.95 in 10.0 mi SE 19.6 mph 26.5 mph N/A   Overcast
6:52 PM 70.0 °F 62.1 °F 76% 29.94 in 10.0 mi SE 18.4 mph 28.8 mph N/A   Overcast
7:52 PM 69.1 °F 63.0 °F 81% 29.96 in 10.0 mi SE 16.1 mph - N/A   Overcast
8:52 PM 69.1 °F 63.0 °F 81% 29.96 in 10.0 mi SE 16.1 mph 21.9 mph N/A   Overcast
9:35 PM 68.0 °F 64.4 °F 88% 29.95 in 10.0 mi SE 16.1 mph - N/A   Overcast
9:52 PM 69.1 °F 64.0 °F 84% 29.95 in 10.0 mi SE 15.0 mph - N/A   Overcast
10:52 PM 70.0 °F 64.0 °F 81% 29.95 in 10.0 mi SE 16.1 mph - N/A   Overcast
11:33 PM 69.8 °F 64.4 °F 83% 29.94 in 10.0 mi SE 15.0 mph - N/A   Overcast
11:52 PM 70.0 °F 64.9 °F 84% 29.94 in 10.0 mi SSE 16.1 mph 21.9 mph N/A   Overcast